Location: Baia Mare
(47.6567°N, 23.5850°E)
Time: 20:12:03
(UTC+03:00)

Envisat - Pass Details

Date: 29 January 2022
Orbit: 764 x 765 km, 98.2° (Epoch: 19 May)

Event Time Altitude Azimuth Distance (km) Brightness Sun altitude
Rises 06:04:00 0° 8° (N) 3,242 6.3 -18.9°
Reaches altitude 10° 06:06:23 10° 3° (N) 2,312 5.4 -18.5°
Maximum altitude 06:11:14 46° 291° (WNW) 1,029 3.2 -17.7°
Drops below altitude 10° 06:16:02 10° 220° (SW) 2,298 5.2 -16.9°
Sets 06:18:24 0° 214° (SW) 3,220 6.0 -16.5°
